Home > Weather > Maple Ridge > Past weeks

Flag for Canada Past Weather in Maple Ridge, British Columbia, Canada — Yesterday and Last 2 Weeks

Now
56 °F

Cool.


Feels Like: 56 °F
Forecast: 60 / 79 °F
Wind: 1 mph from Southeast

Location: P. Meadows Coastal Station

Current Time: Jun 28, 2016 at 4:27:11 AM

Latest Report: Jun 28, 2016 at 4:00 AM


Visibility: N/A

Pressure: 30.15 "Hg

Humidity: 92%

Dew Point: 54 °F

Location of Maple RidgeLocation

Past Weather in Maple Ridge — Graph

°F

Maple Ridge Temperature Yesterday

Maximum temperature yesterday: 82 °F (at 4:00 PM)
Minimum temperature yesterday: 57 °F (at 5:00 AM)
Average temperature yesterday: 70 °F

High & Low Weather Summary for the Past Weeks

 TemperatureHumidityPressure
High82 °F (Jun 27, 4:00 PM)98% (Jun 15, 5:00 AM)30.42 "Hg (Jun 15, 5:00 AM)
Low44 °F (Jun 16, 2:00 AM)33% (Jun 17, 3:00 PM)29.87 "Hg (Jun 13, 9:00 PM)
Average59 °F75%30.11 "Hg
* Reported Jun 13 3:00 AM — Jun 28 3:00 AM, Maple Ridge, Weather by CustomWeather, © 2016

Note: Actual official high and low records may vary slightly from our data, if they occured in-between our weather recording intervals... More about our weather records

Advertising

Maple Ridge Weather History for the Previous 24 Hours

Scroll right to see more
 ConditionsComfort  
Time TempWeatherWind HumidityBarometerVisibility
3:00 AM
Tue, Jun 28
59 °FCool.1 mph83%30.14 "HgN/A
2:00 AM62 °FCool.2 mph82%30.14 "HgN/A
1:00 AM63 °FMild.2 mph79%30.13 "HgN/A
12:00 AM65 °FMild.No wind80%30.12 "HgN/A
11:00 PM
Mon, Jun 27
68 °FMild.1 mph72%30.11 "HgN/A
10:00 PM70 °FMild.1 mph66%30.11 "HgN/A
9:00 PM74 °FMild.2 mph54%30.09 "HgN/A
8:00 PM77 °FWarm.3 mph50%30.09 "HgN/A
7:00 PM79 °FWarm.5 mph46%30.08 "HgN/A
6:00 PM81 °FWarm.5 mph49%30.09 "HgN/A
5:00 PM82 °FWarm.5 mph45%30.09 "HgN/A
4:00 PM82 °FWarm.6 mph47%30.10 "HgN/A
3:00 PM81 °FWarm.5 mph48%30.11 "HgN/A
2:00 PM81 °FWarm.2 mph51%30.11 "HgN/A
1:00 PM79 °FWarm.2 mph52%30.12 "HgN/A
12:00 PM76 °FMild.2 mph58%30.14 "HgN/A
11:00 AM76 °FMild.1 mph60%30.14 "HgN/A
10:00 AM72 °FMild.1 mph63%30.14 "HgN/A
9:00 AM67 °FMild.No wind73%30.15 "HgN/A
8:00 AM65 °FMild.1 mph79%30.14 "HgN/A
7:00 AM62 °FCool.No wind85%30.14 "HgN/A
6:00 AM58 °FCool.No wind92%30.13 "HgN/A
5:00 AM57 °FCool.No wind91%30.12 "HgN/A
4:00 AM58 °FCool.1 mph90%30.12 "HgN/A
Weather by CustomWeather, © 2016

See weather overviewHow to use our weather pages